Location: Unspecified
(0.0000°N, 0.0000°E)
Time: 13:07:20
(UTC+00:00)

A-11 Canister half - All Passes

Search period start: 23 July 2016 00:00
Search period end: 02 August 2016 00:00
Orbit: 1517 x 1683 km, 47.2° (Epoch: 21 July)

Date Brightness Start Highest point End Pass type
(mag) Time Alt. Az. Time Alt. Az. Time Alt. Az.
23 Jul - 07:25:35 10° S 07:33:49 32° SE 07:42:13 10° ENE daylight
23 Jul - 09:29:07 10° SW 09:38:37 57° NW 09:48:25 10° NNE daylight
23 Jul - 18:17:03 10° NNE 18:19:57 11° NE 18:22:50 10° ENE daylight
23 Jul - 20:15:52 10° NNW 20:25:30 67° NE 20:34:49 10° SE visible
23 Jul - 22:22:57 10° W 22:30:17 25° SW 22:37:30 10° S visible
24 Jul - 07:02:57 10° S 07:10:52 29° SE 07:18:57 10° ENE daylight
24 Jul - 09:06:09 10° SW 09:15:42 62° NW 09:25:35 10° NNE daylight
24 Jul - 11:19:50 10° NW 11:21:27 10° NW 11:23:04 10° NNW daylight
24 Jul - 17:56:11 10° NE 17:56:55 10° NE 17:57:39 10° NE daylight
24 Jul - 19:53:00 10° NNW 20:02:36 62° NE 20:11:52 10° SE visible
24 Jul - 21:59:39 10° WNW 22:07:21 27° SW 22:14:56 10° S visible
25 Jul - 06:40:21 10° S 06:47:56 26° SE 06:55:40 10° ENE daylight
25 Jul - 08:43:10 10° SW 08:52:47 67° NW 09:02:43 10° NNE daylight
25 Jul - 10:55:07 10° WNW 10:58:24 12° NW 11:01:43 10° NNW daylight
25 Jul - 19:30:10 10° NNW 19:39:42 57° NE 19:48:53 10° SE visible
25 Jul - 21:36:24 10° WNW 21:44:26 30° SW 21:52:19 10° S visible
26 Jul - 06:17:48 10° S 06:25:00 24° SE 06:32:20 10° E daylight
26 Jul - 08:20:14 10° SW 08:29:52 73° NW 08:39:50 10° NNE daylight
26 Jul - 10:31:05 10° WNW 10:35:22 13° NW 10:39:43 10° NNW daylight
26 Jul - 19:07:20 10° NNW 19:16:47 52° NE 19:25:54 10° SE visible
26 Jul - 21:13:12 10° WNW 21:21:31 33° SW 21:29:40 10° SSE visible
27 Jul - 05:55:16 10° S 06:02:02 21° SE 06:08:56 10° E daylight
27 Jul - 07:57:18 10° SW 08:06:57 78° NW 08:16:56 10° NE daylight
27 Jul - 10:07:18 10° WNW 10:12:21 15° NW 10:17:29 10° NNW daylight
27 Jul - 18:44:32 10° NNW 18:53:52 48° NE 19:02:54 10° ESE visible
27 Jul - 20:50:01 10° WNW 20:58:36 36° SW 21:07:01 10° SSE visible
28 Jul - 05:32:48 10° S 05:39:06 19° SE 05:45:27 10° E visible
28 Jul - 07:34:24 10° SW 07:44:02 85° NW 07:54:01 10° NE daylight
28 Jul - 09:43:41 10° W 09:49:21 17° NW 09:55:08 10° N daylight
28 Jul - 18:21:45 10° NNW 18:30:57 44° NE 18:39:51 10° ESE visible
28 Jul - 20:26:51 10° WNW 20:35:42 40° SW 20:44:19 10° SSE visible
29 Jul - 05:10:25 10° S 05:16:08 17° SE 05:21:56 10° E visible
29 Jul - 07:11:31 10° SW 07:21:07 89° SE 07:31:06 10° NE daylight
29 Jul - 09:20:09 10° W 09:26:21 18° NW 09:32:40 10° N daylight
29 Jul - 17:58:57 10° NNW 18:08:01 40° NE 18:16:47 10° ESE daylight
29 Jul - 20:03:43 10° WNW 20:12:47 44° SW 20:21:37 10° SSE visible
30 Jul - 04:48:06 10° SSE 04:53:10 15° SE 04:58:16 10° E visible
30 Jul - 06:48:40 10° SW 06:58:14 83° SE 07:08:09 10° NE daylight
30 Jul - 08:56:43 10° W 09:03:22 20° NW 09:10:10 10° N daylight
30 Jul - 17:36:12 10° NNW 17:45:06 37° NE 17:53:41 10° ESE daylight
30 Jul - 19:40:38 10° WNW 19:49:53 48° SW 19:58:53 10° SSE visible
31 Jul - 04:25:56 10° SSE 04:30:11 14° SE 04:34:29 10° ESE visible
31 Jul - 06:25:49 10° SW 06:35:20 77° SE 06:45:11 10° NE daylight
31 Jul - 08:33:21 10° W 08:40:23 22° NW 08:47:36 10° N daylight
31 Jul - 17:13:28 10° NNW 17:22:09 34° NE 17:30:34 10° ESE daylight
31 Jul - 19:17:33 10° NW 19:26:59 52° SW 19:36:09 10° SSE visible
01 Aug - 04:04:00 10° SSE 04:07:12 12° SE 04:10:25 10° ESE visible
01 Aug - 06:02:59 10° SSW 06:12:25 71° SE 06:22:12 10° NE daylight
01 Aug - 08:10:02 10° W 08:17:25 24° NW 08:25:00 10° N daylight
01 Aug - 16:50:45 10° N 16:59:13 31° NE 17:07:24 10° ESE daylight
01 Aug - 18:54:30 10° NW 19:04:04 57° SW 19:13:23 10° SSE visible
